Location: Poughquag
(41.6090°N, 73.6820°W)
Time: 04:43:05
(UTC-05:00)

TIGRISAT - Visible Passes

Search period start: 28 November 2023 00:00
Search period end: 08 December 2023 00:00
Orbit: 598 x 676 km, 97.7° (Epoch: 27 November)

Date Brightness Start Highest point End Pass type
(mag) Time Alt. Az. Time Alt. Az. Time Alt. Az.
28 Nov ? 04:58:55 10° SSW 04:59:07 11° SSW 04:59:07 11° SSW visible
28 Nov ? 18:25:51 10° NNW 18:28:24 15° WNW 18:30:54 10° W visible
29 Nov ? 17:10:34 10° N 17:15:06 82° WNW 17:19:28 10° SSW visible
30 Nov ? 04:07:03 10° SSE 04:07:10 11° SSE 04:07:10 11° SSE visible
30 Nov ? 17:33:20 10° N 17:37:39 46° WNW 17:41:50 10° SW visible
01 Dec ? 04:29:45 10° S 04:29:57 11° S 04:29:57 11° S visible
01 Dec ? 17:56:21 10° N 18:00:08 27° WNW 18:03:50 10° SW visible
02 Dec ? 18:19:43 10° NNW 18:22:32 17° WNW 18:25:17 10° WSW visible
03 Dec ? 17:04:38 10° NNE 17:09:07 87° ESE 17:13:27 10° SSW visible
04 Dec ? 17:27:20 10° N 17:31:41 53° WNW 17:35:53 10° SSW visible
05 Dec ? 17:50:15 10° N 17:54:09 30° WNW 17:57:55 10° SW visible
06 Dec ? 18:13:29 10° NNW 18:16:32 18° WNW 18:19:30 10° WSW visible
07 Dec ? 16:58:36 10° NNE 17:03:01 76° ESE 17:07:18 10° S visible
07 Dec ? 18:37:37 10° NW 18:38:49 11° WNW 18:40:00 10° WNW visible
